Location: Ward Pound Ridge Reservation
(41.2500°N, 73.6000°W)
Time: 08:22:30
(UTC-04:00)

OTV 5 (USA 277) - Pass Details

Date: 11 October 2017
Orbit: 404 x 417 km, 43.0° (Epoch: 07 September)

Event Time Altitude Azimuth Distance (km) Brightness Sun altitude
Rises 18:52:09 0° 229° (SW) 2,344 ? -6.9°
Reaches altitude 10° 18:54:20 10° 221° (SW) 1,485 ? -7.4°
Maximum altitude 18:57:27 35° 153° (SSE) 686 ? -7.9°
Enters shadow 19:00:17 12° 87° (E) 1,390 ? -8.5°
